Location: ???????
(55.4362°N, 38.1183°E)
Time: 00:04:30
(UTC+00:00)

ALOS 2 - Pass Details

Date: 17 June 2021
Orbit: 630 x 632 km, 97.9° (Epoch: 05 August)

Event Time Altitude Azimuth Distance (km) Brightness Sun altitude
Exits shadow 19:17:48 - 119° (ESE) 2,545 5.2 -6.4°
Reaches altitude 10° 19:19:19 10° 109° (ESE) 2,019 4.8 -6.5°
Maximum altitude 19:22:46 23° 57° (ENE) 1,356 4.4 -6.7°
Drops below altitude 10° 19:26:13 10° 6° (N) 2,030 6.2 -7.0°
Sets 19:28:47 0° 352° (N) 2,943 7.6 -7.1°
